Location: Newark
(34.6283°N, 36.0776°E)
Time: 11:37:45
(UTC+00:00)

SR - Pass Details

Date: 27 October 2019
Orbit: 573 x 882 km, 66.7° (Epoch: 20 November)

Event Time Altitude Azimuth Distance (km) Brightness Sun altitude
Rises 03:04:20 0° 335° (NNW) 3,476 ? -10.3°
Reaches altitude 10° 03:06:52 10° 337° (NNW) 2,543 ? -9.7°
Maximum altitude 03:12:49 73° 62° (ENE) 915 ? -8.5°
Drops below altitude 10° 03:18:35 10° 147° (SSE) 2,471 ? -7.4°
Sets 03:21:00 0° 150° (SSE) 3,371 ? -6.9°
